Tracking 28091 objects as of 30-Sep-2023
HD Live streaming from Space Station
objects crossing your sky now

STARLINK-30178

Track STARLINK-30178 now!
10-day predictions
STARLINK-30178 is classified as:


NORAD ID: 57447
Int'l Code: 2023-105T
Perigee: 564.7 km
Apogee: 567.7 km
Inclination: 43.0 °
Period: 95.8 minutes
Semi major axis: 6937 km
RCS: Unknown
Launch date: July 24, 2023
Source: United States (US)
Launch site: AIR FORCE EASTERN TEST RANGE (AFETR)
Your satellite tracking list
Your tracking list is empty




NASA's NSSDC Master Catalog

Two Line Element Set (TLE):
1 57447U 23105T   23273.43150246  .00004895  00000-0  37713-3 0  9990
2 57447  43.0017  64.3752 0002110 283.6347  76.4260 15.02540846 11505
Source of the keplerian elements: AFSPC